TimeCST,TemperatureF,Dew PointF,Humidity,Sea Level PressureIn,VisibilityMPH,Wind Direction,Wind SpeedMPH,Gust SpeedMPH,PrecipitationIn,Events,Conditions,WindDirDegrees,DateUTC
12:54 AM,28.0,24.1,85,29.93,10.0,SSE,4.6,-,N/A,,Clear,160,2013-01-19 06:54:00
1:54 AM,26.1,23.0,88,29.92,10.0,South,4.6,-,N/A,,Clear,170,2013-01-19 07:54:00
2:54 AM,26.1,23.0,88,29.93,10.0,South,4.6,-,N/A,,Clear,180,2013-01-19 08:54:00
3:54 AM,27.0,23.0,85,29.92,10.0,South,3.5,-,N/A,,Clear,180,2013-01-19 09:54:00
4:54 AM,25.0,21.9,88,29.92,10.0,South,5.8,-,N/A,,Clear,170,2013-01-19 10:54:00
5:54 AM,27.0,23.0,85,29.93,10.0,South,3.5,-,N/A,,Clear,180,2013-01-19 11:54:00
6:54 AM,28.0,24.1,85,29.94,10.0,South,3.5,-,N/A,,Clear,190,2013-01-19 12:54:00
7:54 AM,30.0,25.0,82,29.98,10.0,Calm,Calm,-,N/A,,Clear,0,2013-01-19 13:54:00
8:54 AM,35.1,26.1,70,30.01,10.0,NW,9.2,-,N/A,,Clear,320,2013-01-19 14:54:00
9:54 AM,48.0,27.0,44,30.04,10.0,NNW,8.1,-,N/A,,Clear,330,2013-01-19 15:54:00
10:54 AM,52.0,25.0,35,30.05,10.0,NW,18.4,27.6,N/A,,Clear,310,2013-01-19 16:54:00
11:54 AM,52.0,25.0,35,30.04,10.0,NW,21.9,31.1,N/A,,Clear,310,2013-01-19 17:54:00
12:54 PM,54.0,26.1,34,30.04,10.0,NW,20.7,28.8,N/A,,Clear,320,2013-01-19 18:54:00
1:54 PM,54.0,28.0,37,30.05,10.0,NNW,19.6,-,N/A,,Clear,340,2013-01-19 19:54:00
2:54 PM,54.0,27.0,35,30.07,10.0,NW,15.0,24.2,N/A,,Clear,320,2013-01-19 20:54:00
3:54 PM,53.1,28.0,38,30.11,10.0,NNW,15.0,21.9,N/A,,Clear,340,2013-01-19 21:54:00
4:54 PM,50.0,28.9,44,30.14,10.0,NNW,10.4,-,N/A,,Clear,340,2013-01-19 22:54:00
5:54 PM,46.0,28.0,50,30.18,10.0,NNW,13.8,-,N/A,,Clear,340,2013-01-19 23:54:00
6:54 PM,35.1,26.1,70,30.21,10.0,North,10.4,-,N/A,,Clear,10,2013-01-20 00:54:00
7:54 PM,39.0,27.0,62,30.26,10.0,NW,3.5,-,N/A,,Clear,310,2013-01-20 01:54:00
8:54 PM,34.0,28.0,79,30.31,10.0,North,15.0,-,N/A,,Clear,360,2013-01-20 02:54:00
9:54 PM,32.0,15.1,50,30.33,10.0,North,18.4,-,N/A,,Clear,350,2013-01-20 03:54:00
10:54 PM,27.0,16.0,63,30.37,10.0,North,9.2,-,N/A,,Clear,350,2013-01-20 04:54:00
11:54 PM,24.8,12.2,59,30.33,10.0,North,17.3,21.9,N/A,,Clear,360,2013-01-20 05:54:00